Location: Wapato
(46.4478°N, 120.4212°W)
Time: 11:27:39
(UTC+00:00)

A-11 Canister half - Visible Passes

Search period start: 15 May 2026 00:00
Search period end: 25 May 2026 00:00
Orbit: 1515 x 1684 km, 47.2° (Epoch: 14 May)

Date Brightness Start Highest point End Pass type
(mag) Time Alt. Az. Time Alt. Az. Time Alt. Az.
15 May 8.9 05:41:15 10° SW 05:50:28 60° SSE 05:59:29 10° ENE visible
15 May 8.9 07:45:44 10° W 07:55:08 87° N 08:04:26 10° E visible
15 May 8.9 09:50:53 10° WNW 10:00:11 84° SSW 10:09:29 10° ESE visible
16 May 9.0 05:18:17 10° SW 05:27:27 57° SSE 05:36:27 10° ENE visible
16 May 8.9 07:22:40 10° W 07:32:05 88° N 07:41:23 10° E visible
16 May 8.8 09:27:50 10° WNW 09:37:09 85° SSW 09:46:27 10° ESE visible
16 May 9.2 11:32:51 10° WNW 11:41:26 45° SW 11:50:06 10° SSE visible
17 May 9.0 04:55:19 10° SW 05:04:28 55° SSE 05:13:24 10° ENE visible
17 May 8.9 06:59:36 10° WSW 07:09:03 89° N 07:18:20 10° E visible
17 May 8.8 09:04:47 10° WNW 09:14:06 87° SSW 09:23:25 10° ESE visible
17 May 9.1 11:09:47 10° WNW 11:18:28 47° SW 11:27:13 10° SSE visible
18 May 9.1 04:32:21 10° SW 04:41:28 53° SE 04:50:22 10° ENE visible
18 May 8.9 06:36:32 10° WSW 06:45:59 90° S 06:55:17 10° E visible
18 May 8.8 08:41:43 10° W 08:51:04 88° SSW 09:00:22 10° ESE visible
18 May 9.1 10:46:43 10° WNW 10:55:29 50° SW 11:04:18 10° SE visible
19 May 9.1 04:09:25 10° SW 04:18:29 50° SE 04:27:19 10° ENE visible
19 May 8.9 06:13:28 10° WSW 06:22:57 88° SSE 06:32:15 10° E visible
19 May 8.9 08:18:40 10° W 08:28:02 90° SSW 08:37:20 10° ESE visible
19 May 9.0 10:23:41 10° WNW 10:32:31 52° SW 10:41:23 10° SE visible
20 May 8.9 05:50:24 10° WSW 05:59:55 87° SSE 06:09:12 10° ENE visible
20 May 8.9 07:55:36 10° W 08:05:00 89° N 08:14:17 10° ESE visible
20 May 9.0 10:00:37 10° WNW 10:09:32 54° SSW 10:18:27 10° SE visible
21 May 8.9 05:27:20 10° WSW 05:36:52 86° SSE 05:46:10 10° ENE visible
21 May 8.9 07:32:32 10° W 07:41:57 88° N 07:51:14 10° E visible
21 May 8.9 09:37:34 10° WNW 09:46:33 57° SSW 09:55:31 10° SE visible
21 May 9.9 11:43:46 10° W 11:49:52 20° SW 11:56:00 10° S visible
22 May 8.9 05:04:17 10° WSW 05:13:50 84° SSE 05:23:08 10° ENE visible
22 May 8.9 07:09:28 10° W 07:18:54 88° N 07:28:12 10° E visible
22 May 8.9 09:14:31 10° WNW 09:23:33 59° SSW 09:32:34 10° SE visible
22 May 9.8 11:20:32 10° W 11:26:57 21° SW 11:33:24 10° S visible
23 May 9.0 04:41:14 10° WSW 04:50:48 82° SSE 05:00:06 10° ENE visible
23 May 8.9 06:46:23 10° W 06:55:52 87° N 07:05:09 10° E visible
23 May 8.9 08:51:27 10° WNW 09:00:34 62° SSW 09:09:36 10° SE visible
23 May 9.8 10:57:19 10° W 11:04:02 23° SW 11:10:46 10° S visible
24 May 9.0 04:18:10 10° WSW 04:27:45 80° SSE 04:37:05 10° ENE visible
24 May 8.9 06:23:19 10° W 06:32:48 86° N 06:42:06 10° E visible
24 May 8.8 08:28:24 10° WNW 08:37:34 64° SSW 08:46:39 10° SE visible
24 May 9.7 10:34:08 10° W 10:41:06 25° SW 10:48:06 10° S visible
